• In Lithuania
  • List of Countries
  • For 7 days
  • Water Temperature
  • Satellite Maps
  • Weather Map
  • Weather Widgets
  • user-avatar
    Login

    Hourly Weather Warburg

    Today, 19 September, Wednesday

    Time Temperature Precipitation Wind Pressure Humidity
    00:00 +19°C° 0 mm 1 mps 742 mmHg 83%
    01:00 +16°C° 0 mm 0 mps 742 mmHg 86%
    02:00 +16°C° 0 mm 0 mps 742 mmHg 87%
    03:00 +16°C° 0 mm 0 mps 743 mmHg 88%
    04:00 +15°C° 0 mm 0 mps 743 mmHg 89%
    05:00 +18°C° 0 mm 1 mps 743 mmHg 88%
    06:00 +18°C° 0 mm 1 mps 743 mmHg 88%
    07:00 +18°C° 0 mm 1 mps 743 mmHg 84%
    08:00 +19°C° 0 mm 2 mps 743 mmHg 77%
    09:00 +21°C° 0 mm 2 mps 744 mmHg 70%
    10:00 +24°C° 0 mm 3 mps 744 mmHg 63%
    11:00 +25°C° 0 mm 3 mps 743 mmHg 58%
    12:00 +27°C° 0 mm 4 mps 743 mmHg 53%
    13:00 +28°C° 0 mm 5 mps 743 mmHg 48%
    14:00 +28°C° 0 mm 5 mps 743 mmHg 49%
    15:00 +28°C° 0 mm 4 mps 743 mmHg 50%
    16:00 +28°C° 0 mm 4 mps 742 mmHg 51%
    17:00 +26°C° 0 mm 4 mps 743 mmHg 58%
    18:00 +24°C° 0 mm 3 mps 743 mmHg 65%
    19:00 +21°C° 0 mm 2 mps 743 mmHg 73%
    20:00 +20°C° 0 mm 2 mps 743 mmHg 76%
    21:00 +20°C° 0 mm 2 mps 743 mmHg 79%
    22:00 +19°C° 0 mm 2 mps 744 mmHg 83%
    23:00 +18°C° 0 mm 2 mps 744 mmHg 85%

    Tomorrow, 20 September, Thursday

    Time Temperature Precipitation Wind Pressure Humidity
    00:00 +17°C° 0 mm 2 mps 744 mmHg 87%
    01:00 +18°C° 0 mm 1 mps 744 mmHg 90%
    02:00 +16°C° 0 mm 2 mps 744 mmHg 90%
    03:00 +16°C° 0 mm 2 mps 744 mmHg 91%
    04:00 +16°C° 0 mm 2 mps 743 mmHg 92%
    05:00 +16°C° 0 mm 2 mps 744 mmHg 91%
    06:00 +16°C° 0 mm 2 mps 744 mmHg 91%
    07:00 +16°C° 0 mm 2 mps 744 mmHg 90%
    08:00 +18°C° 0 mm 2 mps 744 mmHg 82%
    09:00 +20°C° 0 mm 3 mps 744 mmHg 73%
    10:00 +22°C° 0 mm 3 mps 744 mmHg 64%
    11:00 +23°C° 0 mm 4 mps 744 mmHg 59%
    12:00 +25°C° 0 mm 4 mps 743 mmHg 54%
    13:00 +26°C° 0 mm 4 mps 743 mmHg 48%
    14:00 +26°C° 0 mm 4 mps 743 mmHg 48%
    15:00 +26°C° 0 mm 4 mps 742 mmHg 48%
    16:00 +26°C° 0 mm 4 mps 742 mmHg 47%
    17:00 +24°C° 0 mm 3 mps 742 mmHg 54%
    18:00 +22°C° 0 mm 3 mps 741 mmHg 62%
    19:00 +20°C° 0 mm 2 mps 741 mmHg 69%
    20:00 +19°C° 0 mm 2 mps 740 mmHg 70%
    21:00 +19°C° 0 mm 2 mps 740 mmHg 72%
    22:00 +18°C° 0 mm 3 mps 740 mmHg 74%
    23:00 +18°C° 0 mm 3 mps 739 mmHg 74%

    Day after tomorrow, 21 September, Friday

    Time Temperature Precipitation Wind Pressure Humidity
    00:00 +18°C° 0 mm 3 mps 739 mmHg 74%
    01:00 +18°C° 0 mm 3 mps 738 mmHg 75%
    02:00 +19°C° 0 mm 4 mps 738 mmHg 73%
    03:00 +19°C° 0 mm 4 mps 737 mmHg 70%
    04:00 +19°C° 0 mm 4 mps 737 mmHg 68%
    05:00 +19°C° 0 mm 5 mps 736 mmHg 68%
    06:00 +19°C° 0 mm 5 mps 736 mmHg 67%
    07:00 +20°C° 0 mm 5 mps 735 mmHg 67%
    08:00 +21°C° 0 mm 6 mps 735 mmHg 63%
    09:00 +22°C° 0 mm 7 mps 736 mmHg 60%
    10:00 +22°C° 0 mm 8 mps 736 mmHg 56%
    11:00 +20°C° 1.2 mm 7 mps 736 mmHg 64%
    12:00 +17°C° 1.2 mm 6 mps 737 mmHg 72%
    13:00 +15°C° 1.2 mm 6 mps 737 mmHg 80%
    14:00 +15°C° 0.2 mm 5 mps 738 mmHg 73%
    15:00 +15°C° 0.2 mm 5 mps 738 mmHg 66%
    16:00 +15°C° 0.2 mm 5 mps 739 mmHg 59%
    17:00 +14°C° 0 mm 4 mps 739 mmHg 59%
    18:00 +13°C° 0 mm 4 mps 740 mmHg 58%
    19:00 +12°C° 0 mm 3 mps 740 mmHg 58%
    20:00 +12°C° 0 mm 4 mps 741 mmHg 59%
    21:00 +11°C° 0 mm 4 mps 741 mmHg 60%
    22:00 +11°C° 0 mm 4 mps 742 mmHg 60%
    23:00 +11°C° 0 mm 4 mps 742 mmHg 62%

    22 September, Saturday

    Time Temperature Precipitation Wind Pressure Humidity
    00:00 +11°C° 0 mm 4 mps 742 mmHg 63%
    01:00 +10°C° 0 mm 4 mps 742 mmHg 65%
    02:00 +10°C° 0 mm 4 mps 742 mmHg 67%
    03:00 +10°C° 0 mm 4 mps 742 mmHg 70%
    04:00 +8°C° 0 mm 4 mps 743 mmHg 73%
    05:00 +8°C° 0 mm 4 mps 743 mmHg 75%
    06:00 +8°C° 0 mm 4 mps 743 mmHg 77%
    07:00 +8°C° 0 mm 4 mps 743 mmHg 79%
    08:00 +10°C° 0 mm 4 mps 744 mmHg 72%
    09:00 +12°C° 0 mm 5 mps 744 mmHg 66%
    10:00 +13°C° 0 mm 6 mps 744 mmHg 60%
    11:00 +14°C° 0.1 mm 6 mps 744 mmHg 57%
    12:00 +14°C° 0.1 mm 6 mps 744 mmHg 53%
    13:00 +15°C° 0.1 mm 6 mps 744 mmHg 50%
    14:00 +15°C° 0.2 mm 6 mps 744 mmHg 52%
    15:00 +15°C° 0.2 mm 6 mps 744 mmHg 54%
    16:00 +14°C° 0.2 mm 5 mps 744 mmHg 57%
    17:00 +13°C° 0 mm 4 mps 744 mmHg 63%
    18:00 +11°C° 0 mm 3 mps 744 mmHg 69%
    19:00 +10°C° 0 mm 2 mps 745 mmHg 75%
    20:00 +9°C° 0 mm 2 mps 745 mmHg 77%
    21:00 +9°C° 0 mm 2 mps 745 mmHg 78%
    22:00 +8°C° 0 mm 2 mps 745 mmHg 80%
    23:00 +9°C° 0 mm 1 mps 745 mmHg 80%

    23 September, Sunday

    Time Temperature Precipitation Wind Pressure Humidity
    00:00 +8°C° 0 mm 1 mps 745 mmHg 80%
    01:00 +8°C° 0 mm 1 mps 745 mmHg 81%
    02:00 +8°C° 0 mm 1 mps 744 mmHg 80%
    03:00 +8°C° 0 mm 1 mps 744 mmHg 80%
    04:00 +8°C° 0 mm 1 mps 743 mmHg 79%
    05:00 +8°C° 0 mm 2 mps 743 mmHg 79%
    06:00 +8°C° 0 mm 2 mps 742 mmHg 79%
    07:00 +8°C° 0 mm 2 mps 741 mmHg 79%
    08:00 +9°C° 0.1 mm 3 mps 740 mmHg 77%
    09:00 +10°C° 0.1 mm 4 mps 739 mmHg 76%
    10:00 +9°C° 0.1 mm 5 mps 737 mmHg 74%
    11:00 +10°C° 0.3 mm 6 mps 736 mmHg 74%
    12:00 +11°C° 0.3 mm 7 mps 734 mmHg 74%
    13:00 +12°C° 0.3 mm 7 mps 732 mmHg 74%
    14:00 +14°C° 0.9 mm 7 mps 730 mmHg 76%
    15:00 +15°C° 0.9 mm 7 mps 728 mmHg 77%
    16:00 +16°C° 0.9 mm 6 mps 727 mmHg 79%
    17:00 +16°C° 1.5 mm 6 mps 726 mmHg 82%
    18:00 +16°C° 1.5 mm 6 mps 725 mmHg 85%
    19:00 +16°C° 1.5 mm 6 mps 724 mmHg 88%
    20:00 +15°C° 0.3 mm 6 mps 725 mmHg 84%
    21:00 +12°C° 0.3 mm 7 mps 725 mmHg 81%
    22:00 +10°C° 0.3 mm 7 mps 725 mmHg 77%
    23:00 +10°C° 0 mm 7 mps 725 mmHg 75%

    24 September, Monday

    Time Temperature Precipitation Wind Pressure Humidity
    00:00 +10°C° 0 mm 6 mps 725 mmHg 74%
    01:00 +9°C° 0 mm 6 mps 724 mmHg 72%
    02:00 +9°C° 0.6 mm 5 mps 724 mmHg 78%
    03:00 +10°C° 0.6 mm 4 mps 723 mmHg 83%
    04:00 +10°C° 0.6 mm 4 mps 723 mmHg 88%
    05:00 +10°C° 0.5 mm 4 mps 724 mmHg 90%
    06:00 +9°C° 0.5 mm 5 mps 725 mmHg 91%
    07:00 +9°C° 0.5 mm 6 mps 726 mmHg 93%
    08:00 +8°C° 0.4 mm 7 mps 728 mmHg 91%
    09:00 +7°C° 0.4 mm 8 mps 730 mmHg 89%
    10:00 +7°C° 0.4 mm 9 mps 732 mmHg 87%
    11:00 +7°C° 0.4 mm 9 mps 733 mmHg 85%
    12:00 +9°C° 0.4 mm 8 mps 735 mmHg 82%
    13:00 +9°C° 0.4 mm 8 mps 737 mmHg 80%
    14:00 +9°C° 0.5 mm 8 mps 738 mmHg 79%
    15:00 +9°C° 0.5 mm 8 mps 739 mmHg 79%
    16:00 +9°C° 0.5 mm 8 mps 740 mmHg 78%
    17:00 +8°C° 0.3 mm 7 mps 741 mmHg 80%
    18:00 +8°C° 0.3 mm 7 mps 742 mmHg 83%
    19:00 +7°C° 0.3 mm 6 mps 743 mmHg 85%
    20:00 +7°C° 0.1 mm 6 mps 744 mmHg 86%
    21:00 +5°C° 0.1 mm 6 mps 745 mmHg 86%
    22:00 +6°C° 0.1 mm 5 mps 746 mmHg 87%
    23:00 +6°C° 0.1 mm 5 mps 746 mmHg 87%
    Show more